This is the latest recevied weather packets stored in our database for station/object W0SS-13. If no packets are shown the sender has not sent any weather packets the latest 10 day(s).
| Time | Temp. | Humidity | Pressure | Rain* | Wind** | Luminosity | Snow |
|---|---|---|---|---|---|---|---|
| 1777993623 | 9.44° C | 85% | 1013.2 hPa | 0 mm | - | 95 W/m² | - |
| 1777993322 | 8.89° C | 84% | 1013.3 hPa | 0 mm | - | 103 W/m² | - |
| 1777993021 | 9.44° C | 84% | 1013.4 hPa | 0 mm | - | 88 W/m² | - |
| 1777992720 | 8.89° C | 84% | 1013.3 hPa | 0 mm | - | 123 W/m² | - |
| 1777992417 | 8.89° C | 84% | 1013.1 hPa | 0 mm | - | 112 W/m² | - |
| 1777992115 | 9.44° C | 84% | 1012.7 hPa | 0 mm | - | 111 W/m² | - |
| 1777991812 | 9.44° C | 85% | 1012.9 hPa | 0 mm | - | 146 W/m² | - |
| 1777991509 | 8.89° C | 86% | 1013 hPa | 0 mm | - | 139 W/m² | - |
| 1777991206 | 8.89° C | 86% | 1012.7 hPa | 0 mm | - | 149 W/m² | - |
| 1777990903 | 8.89° C | 86% | 1012.8 hPa | 0 mm | - | 206 W/m² | - |
| 1777990601 | 8.89° C | 87% | 1013 hPa | 1.78 mm | - | 153 W/m² | - |
| 1777989994 | 8.33° C | 87% | 1013.1 hPa | 1.27 mm | - | 49 W/m² | - |
| 1777989691 | 8.89° C | 87% | 1012.8 hPa | 3.05 mm | - | 40 W/m² | - |
| 1777989386 | 8.89° C | 86% | 1013.2 hPa | 1.78 mm | - | 30 W/m² | - |
| 1777989083 | 8.89° C | 86% | 1012.9 hPa | 0 mm | - | 39 W/m² | - |
| 1777988779 | 8.89° C | 85% | 1013 hPa | 1.27 mm | - | 34 W/m² | - |
| 1777988477 | 8.89° C | 85% | 1013.4 hPa | 1.27 mm | - | 17 W/m² | - |
| 1777988174 | 8.89° C | 85% | 1013 hPa | 1.78 mm | - | 17 W/m² | - |
| 1777987869 | 8.89° C | 85% | 1013.1 hPa | 3.56 mm | - | 17 W/m² | - |
| 1777987566 | 8.89° C | 85% | 1012.3 hPa | 1.78 mm | - | 30 W/m² | - |
| 1777987264 | 8.89° C | 86% | 1013 hPa | 1.27 mm | - | 29 W/m² | - |
| 1777986960 | 8.89° C | 86% | 1013.1 hPa | 1.27 mm | - | 10 W/m² | - |
| 1777986658 | 8.89° C | 86% | 1012.2 hPa | 3.05 mm | - | 9 W/m² | - |
| 1777986356 | 8.89° C | 86% | 1012.3 hPa | 4.83 mm | - | 14 W/m² | - |
| 1777986054 | 8.89° C | 85% | 1012.4 hPa | 1.78 mm | - | 8 W/m² | - |
* Rain latest hour (hover to see other rain measurements)
** Current wind speed in m/s (hover to see current wind gust speed)